CW5988 Weather Reports


time (UTC)temp
C
wind
direction
speed
KPH
gust
KPH
rain 1hr
cm
rain 24hr
cm
rain mn
cm
humidity
%
barometer
mb
20260901014932 16 271 12.9 22.5 0.00 0.00 0.00 74 1013.3
20260901014418 16 225 12.9 22.5 0.00 0.00 0.00 73 1013.2
20260901013923 16 246 11.3 20.9 0.00 0.00 0.00 73 1013.2
20260901013427 17 359 11.3 24.1 0.00 0.00 0.00 73 1013.2
20260901012932 17 120 12.9 24.1 0.00 0.00 0.00 73 1013.3
20260901012437 17 244 11.3 17.7 0.00 0.00 0.00 73 1013.3
20260901011923 17 253 8.0 24.1 0.00 0.00 0.00 73 1013.2
20260901011424 17 273 9.7 24.1 0.00 0.00 0.00 73 1013.2
20260901010930 17 215 6.4 24.1 0.00 0.00 0.00 73 1013.1
20260901010434 17 249 11.3 25.7 0.00 0.00 0.00 74 1013.1
20260901005937 17 285 9.7 25.7 0.00 0.00 0.00 73 1013.1
20260901005453 17 278 4.8 20.9 0.00 0.00 0.00 74 1013.0
20260901004938 17 290 11.3 20.9 0.00 0.00 0.00 74 1013.2
20260901004423 17 212 8.0 20.9 0.00 0.00 0.00 74 1013.2
20260901003925 17 205 8.0 20.9 0.00 0.00 0.00 74 1013.2
20260901003432 17 329 11.3 29.0 0.00 0.00 0.00 75 1013.2
20260901002917 17 271 14.5 29.0 0.00 0.00 0.00 75 1013.2
20260901002422 17 256 11.3 25.7 0.00 0.00 0.00 75 1013.3
20260901001927 17 243 12.9 25.7 0.00 0.00 0.00 75 1013.2
20260901001431 17 209 14.5 20.9 0.00 0.00 0.00 76 1013.3
20260901000937 17 185 11.3 32.2 0.00 0.00 0.00 76 1013.4
20260901000437 17 210 14.5 32.2 0.00 0.00 0.00 76 1013.3
20260831235951 17 252 11.3 29.0 0.00 0.00 0.00 77 1013.3
20260831235434 17 239 11.3 29.0 0.00 0.00 0.00 77 1013.3
20260831234918 17 289 9.7 22.5 0.00 0.00 0.00 78 1013.5
20260831234423 17 273 12.9 24.1 0.00 0.00 0.00 77 1013.4
20260831233928 17 231 6.4 19.3 0.00 0.00 0.00 77 1013.6
20260831233433 17 218 8.0 22.5 0.00 0.00 0.00 77 1013.5
20260831232934 17 238 11.3 24.1 0.00 0.00 0.00 77 1013.5
20260831232451 17 273 16.1 24.1 0.00 0.00 0.00 77 1013.5
20260831231936 17 290 12.9 25.7 0.00 0.00 0.00 77 1013.4
20260831231419 17 280 12.9 25.7 0.00 0.00 0.00 77 1013.5
20260831230929 17 209 11.3 24.1 0.00 0.00 0.00 77 1013.5
20260831230432 17 280 12.9 24.1 0.00 0.00 0.00 76 1013.6
20260831225935 17 276 6.4 25.7 0.00 0.00 0.00 77 1013.7
20260831225421 17 259 12.9 25.7 0.00 0.00 0.00 76 1013.7
20260831224936 17 292 4.8 14.5 0.00 0.00 0.00 77 1013.8
20260831224422 17 99 6.4 24.1 0.00 0.00 0.00 77 1013.9
20260831223925 17 264 11.3 27.4 0.00 0.00 0.00 77 1013.8
20260831223427 17 229 11.3 27.4 0.00 0.00 0.00 76 1013.8
20260831222933 17 287 9.7 19.3 0.00 0.00 0.00 77 1013.8
20260831222437 17 282 8.0 19.3 0.00 0.00 0.00 78 1013.9
20260831221920 17 289 9.7 25.7 0.00 0.00 0.00 78 1014.0
20260831221422 17 261 12.9 25.7 0.00 0.00 0.00 78 1013.8
20260831220927 17 264 11.3 25.7 0.00 0.00 0.00 78 1013.9
20260831220432 17 268 14.5 25.7 0.00 0.00 0.00 78 1014.0
20260831215945 17 277 12.9 24.1 0.00 0.00 0.00 78 1014.0
20260831215432 17 283 14.5 24.1 0.00 0.00 0.00 78 1014.2
20260831214935 17 244 12.9 22.5 0.00 0.00 0.00 78 1014.3
20260831214418 17 282 11.3 22.5 0.00 0.00 0.00 78 1014.3
20260831213942 17 211 14.5 22.5 0.00 0.00 0.00 77 1014.3
20260831213425 17 210 8.0 22.5 0.00 0.00 0.00 78 1014.4
20260831212931 17 282 6.4 20.9 0.00 0.00 0.00 78 1014.4
20260831212436 17 216 9.7 20.9 0.00 0.00 0.00 78 1014.3
20260831211942 16 279 9.7 25.7 0.00 0.00 0.00 78 1014.5
20260831211423 17 247 12.9 25.7 0.00 0.00 0.00 78 1014.6
20260831210927 17 280 11.3 27.4 0.00 0.00 0.00 78 1014.6
20260831210431 17 257 9.7 27.4 0.00 0.00 0.00 77 1014.7
20260831205937 17 235 12.9 19.3 0.00 0.00 0.00 77 1014.8
20260831205421 17 275 6.4 20.9 0.00 0.00 0.00 78 1014.7
20260831204956 17 282 11.3 22.5 0.00 0.00 0.00 78 1014.6
20260831204419 17 218 11.3 22.5 0.00 0.00 0.00 78 1014.7
20260831203925 17 292 4.8 25.7 0.00 0.00 0.00 79 1014.6
20260831203423 16 242 11.3 25.7 0.00 0.00 0.00 78 1014.7
20260831202957 16 302 4.8 20.9 0.00 0.00 0.00 79 1014.6
20260831202422 16 275 9.7 22.5 0.00 0.00 0.00 79 1014.6
20260831201946 16 290 14.5 22.5 0.00 0.00 0.00 78 1014.5
20260831201429 16 276 9.7 19.3 0.00 0.00 0.00 79 1014.6
20260831200932 16 295 11.3 20.9 0.00 0.00 0.00 79 1014.6
20260831200433 16 232 8.0 20.9 0.00 0.00 0.00 79 1014.6
20260831195935 16 290 11.3 25.7 0.00 0.00 0.00 79 1014.6
20260831195420 16 299 9.7 20.9 0.00 0.00 0.00 79 1014.5
20260831194923 16 283 9.7 29.0 0.00 0.00 0.00 80 1014.5
20260831194429 16 280 11.3 29.0 0.00 0.00 0.00 79 1014.6
20260831193935 16 265 8.0 17.7 0.00 0.00 0.00 79 1014.7
20260831193436 16 247 6.4 19.3 0.00 0.00 0.00 80 1014.7
20260831192935 16 226 6.4 22.5 0.00 0.00 0.00 80 1014.7
20260831192421 16 270 11.3 24.1 0.00 0.00 0.00 80 1014.8
20260831191926 16 225 12.9 24.1 0.00 0.00 0.00 80 1014.8
20260831191433 16 345 6.4 17.7 0.00 0.00 0.00 80 1014.8
20260831190918 16 209 6.4 17.7 0.00 0.00 0.00 81 1014.7
20260831190425 16 62 8.0 16.1 0.00 0.00 0.00 80 1014.6
20260831185941 16 268 8.0 17.7 0.00 0.00 0.00 81 1014.7
20260831185452 16 273 11.3 17.7 0.00 0.00 0.00 81 1014.8
20260831184936 16 222 4.8 24.1 0.00 0.00 0.00 82 1014.8
20260831184441 16 228 9.7 24.1 0.00 0.00 0.00 81 1014.9
20260831183946 16 203 9.7 25.7 0.00 0.00 0.00 81 1014.9
20260831183426 16 232 9.7 27.4 0.00 0.00 0.00 82 1014.9
20260831182929 16 275 4.8 20.9 0.00 0.00 0.00 82 1014.9
20260831182431 16 306 6.4 14.5 0.00 0.00 0.00 82 1014.8
20260831181930 15 268 6.4 16.1 0.00 0.00 0.00 83 1014.8
20260831181437 15 284 8.0 19.3 0.00 0.00 0.00 83 1014.7
20260831180920 15 237 6.4 19.3 0.00 0.00 0.00 83 1014.8
20260831180425 15 259 3.2 20.9 0.00 0.00 0.00 84 1014.8
20260831175930 15 263 8.0 14.5 0.00 0.00 0.00 84 1014.8
20260831175435 15 217 4.8 16.1 0.00 0.00 0.00 84 1014.8
20260831174936 15 213 6.4 17.7 0.00 0.00 0.00 84 1014.9
20260831174437 15 235 6.4 17.7 0.00 0.00 0.00 85 1014.8
20260831173921 15 232 3.2 17.7 0.00 0.00 0.00 85 1014.7
20260831173424 15 218 9.7 20.9 0.00 0.00 0.00 85 1014.6
20260831172928 15 285 9.7 22.5 0.00 0.00 0.00 85 1014.7
20260831172433 15 273 12.9 22.5 0.00 0.00 0.00 85 1014.7
20260831171918 15 230 4.8 16.1 0.00 0.00 0.00 85 1014.7
20260831171418 15 268 3.2 16.1 0.00 0.00 0.00 85 1014.6
20260831170921 15 297 4.8 22.5 0.00 0.00 0.00 85 1014.6
20260831170427 14 335 9.7 22.5 0.00 0.00 0.00 85 1014.5
20260831165935 14 302 6.4 24.1 0.00 0.00 0.00 85 1014.5
20260831165419 14 273 12.9 24.1 0.00 0.00 0.00 85 1014.5
20260831164921 14 222 11.3 20.9 0.00 0.00 0.00 85 1014.4
20260831164423 14 254 12.9 19.3 0.00 0.00 0.00 85 1014.5
20260831163943 14 224 9.7 19.3 0.00 0.00 0.00 85 1014.4
20260831163445 14 239 6.4 16.1 0.00 0.00 0.00 86 1014.4
20260831162930 14 317 6.4 20.9 0.00 0.00 0.00 86 1014.4
20260831162434 14 243 11.3 20.9 0.00 0.00 0.00 86 1014.3
20260831161918 14 282 11.3 20.9 0.00 0.00 0.00 86 1014.3
20260831161424 14 45 6.4 16.1 0.00 0.00 0.00 86 1014.1
20260831160927 14 218 9.7 16.1 0.00 0.00 0.00 86 1014.0
20260831160429 14 284 4.8 14.5 0.00 0.00 0.00 86 1014.0
20260831155935 14 27 3.2 20.9 0.00 0.00 0.00 86 1014.0
20260831155420 14 324 4.8 20.9 0.00 0.00 0.00 86 1014.0
20260831154924 14 188 1.6 4.8 0.00 0.00 0.00 86 1014.1
20260831154427 14 323 3.2 12.9 0.00 0.00 0.00 86 1014.0
20260831153930 14 234 4.8 14.5 0.00 0.00 0.00 86 1014.1
20260831153430 14 123 6.4 20.9 0.00 0.00 0.00 86 1014.1
20260831152935 14 196 9.7 20.9 0.00 0.00 0.00 86 1014.0
20260831152420 14 239 6.4 19.3 0.00 0.00 0.00 86 1014.0
20260831151921 14 278 8.0 20.9 0.00 0.00 0.00 85 1014.0
20260831151425 14 207 8.0 20.9 0.00 0.00 0.00 85 1014.0
20260831150932 14 280 11.3 19.3 0.00 0.00 0.00 85 1014.0
20260831150433 14 263 8.0 19.3 0.00 0.00 0.00 85 1014.0
20260831145932 14 360 4.8 14.5 0.00 0.00 0.00 85 1014.0
20260831145418 14 240 6.4 19.3 0.00 0.00 0.00 85 1013.9
20260831144922 14 196 8.0 19.3 0.00 0.00 0.00 85 1013.9
20260831144454 14 271 4.8 17.7 0.00 0.00 0.00 85 1013.8
20260831143918 14 283 11.3 17.7 0.00 0.00 0.00 85 1013.7
20260831143422 14 214 6.4 11.3 0.00 0.00 0.00 85 1013.7
20260831142926 14 217 4.8 9.7 0.00 0.00 0.00 85 1013.5
20260831142428 14 206 3.2 12.9 0.00 0.00 0.00 85 1013.6
20260831141933 14 268 4.8 16.1 0.00 0.00 0.00 85 1013.5
20260831141418 14 237 6.4 16.1 0.00 0.00 0.00 85 1013.3
20260831140923 14 240 4.8 11.3 0.00 0.00 0.00 85 1013.2
20260831140426 13 139 3.2 16.1 0.00 0.00 0.00 85 1013.1
20260831135931 14 261 6.4 16.1 0.00 0.00 0.00 85 1013.2
20260831135420 14 252 6.4 16.1 0.00 0.00 0.00 85 1013.1
20260831134927 14 254 6.4 16.1 0.00 0.00 0.00 85 1013.1
20260831134428 14 263 8.0 20.9 0.00 0.00 0.00 85 1013.1
20260831133936 14 210 12.9 20.9 0.00 0.00 0.00 84 1013.0
20260831133418 14 261 3.2 17.7 0.00 0.00 0.00 84 1013.0
20260831132925 14 280 8.0 19.3 0.00 0.00 0.00 84 1012.9
20260831132457 14 254 9.7 19.3 0.00 0.00 0.00 84 1012.9
20260831131923 14 250 9.7 20.9 0.00 0.00 0.00 84 1013.1
20260831131427 14 216 9.7 20.9 0.00 0.00 0.00 84 1013.1
20260831130928 14 273 6.4 19.3 0.00 0.00 0.00 84 1012.9
20260831130432 14 216 4.8 19.3 0.00 0.00 0.00 84 1012.9
20260831125925 14 275 6.4 19.3 0.00 0.00 0.00 84 1012.9
20260831125427 14 270 9.7 19.3 0.00 0.00 0.00 84 1012.8
20260831124932 14 239 8.0 20.9 0.00 0.00 0.00 84 1012.8
20260831124437 14 254 9.7 22.5 0.00 0.00 0.00 83 1012.8
20260831123923 14 227 11.3 22.5 0.00 0.00 0.00 83 1012.9
20260831123422 14 220 6.4 20.9 0.00 0.00 0.00 83 1012.8
20260831122927 14 225 9.7 20.9 0.00 0.00 0.00 83 1012.8
20260831122432 14 268 3.2 14.5 0.00 0.00 0.00 83 1012.8
20260831121936 14 99 6.4 14.5 0.00 0.00 0.00 83 1012.8
20260831121423 14 228 3.2 14.5 0.00 0.00 0.00 83 1012.8
20260831120928 14 347 4.8 14.5 0.00 0.00 0.00 83 1012.8
20260831120422 14 208 8.0 12.9 0.00 0.00 0.00 83 1012.7
20260831115922 14 301 4.8 14.5 0.00 0.00 0.00 83 1012.6
20260831115456 14 320 4.8 16.1 0.00 0.00 0.00 83 1012.6
20260831114920 14 299 9.7 16.1 0.00 0.00 0.00 83 1012.6
20260831114452 14 239 1.6 12.9 0.00 0.00 0.00 83 1012.7
20260831113936 14 313 6.4 12.9 0.00 0.00 0.00 83 1012.7
20260831113421 14 313 1.6 17.7 0.00 0.00 0.00 83 1012.6
20260831112923 14 256 3.2 16.1 0.00 0.00 0.00 83 1012.6
20260831112426 14 88 1.6 8.0 0.00 0.00 0.00 83 1012.7
20260831111931 14 276 3.2 11.3 0.00 0.00 0.00 83 1012.6
20260831111435 14 239 1.6 14.5 0.00 0.00 0.00 83 1012.7
20260831110938 14 31 4.8 14.5 0.00 0.00 0.00 83 1012.7
20260831110440 14 185 8.0 14.5 0.00 0.00 0.00 83 1012.7
20260831105925 14 57 3.2 11.3 0.00 0.00 0.00 83 1012.7
20260831105426 14 78 1.6 11.3 0.00 0.00 0.00 83 1012.6
20260831104932 14 207 4.8 16.1 0.00 0.00 0.00 83 1012.6
20260831104439 14 230 6.4 16.1 0.00 0.00 0.00 83 1012.5
20260831103925 14 239 1.6 12.9 0.00 0.00 0.00 83 1012.6
20260831103430 14 299 6.4 16.1 0.00 0.00 0.00 83 1012.5
20260831102936 14 217 6.4 20.9 0.00 0.00 0.00 83 1012.5
20260831102422 14 222 11.3 22.5 0.00 0.00 0.00 83 1012.5
20260831101922 14 202 8.0 22.5 0.00 0.00 0.00 83 1012.5
20260831101428 14 201 12.9 22.5 0.00 0.00 0.00 83 1012.6
20260831100935 14 239 9.7 20.9 0.00 0.00 0.00 83 1012.5
20260831100436 14 177 6.4 24.1 0.00 0.00 0.00 83 1012.4
20260831095919 14 225 9.7 24.1 0.00 0.00 0.00 83 1012.4
20260831095424 14 198 9.7 19.3 0.00 0.00 0.00 83 1012.4
20260831094930 14 229 9.7 19.3 0.00 0.00 0.00 83 1012.4
20260831094458 14 251 6.4 16.1 0.00 0.00 0.00 83 1012.4
20260831093953 14 201 4.8 16.1 0.00 0.00 0.00 83 1012.4
20260831093436 14 188 8.0 16.1 0.00 0.00 0.00 83 1012.4
20260831092941 14 239 6.4 16.1 0.00 0.00 0.00 83 1012.4
20260831092456 14 226 9.7 16.1 0.00 0.00 0.00 83 1012.5
20260831091921 14 240 4.8 20.9 0.00 0.00 0.00 83 1012.5
20260831091422 14 177 4.8 20.9 0.00 0.00 0.00 83 1012.4
20260831090956 14 301 4.8 19.3 0.00 0.00 0.00 83 1012.5
20260831090437 14 187 4.8 19.3 0.00 0.00 0.00 83 1012.4
20260831085919 14 326 8.0 16.1 0.00 0.00 0.00 83 1012.4
20260831085424 14 215 6.4 19.3 0.00 0.00 0.00 83 1012.4
20260831084927 14 237 8.0 22.5 0.00 0.00 0.00 83 1012.5
20260831084431 14 232 8.0 22.5 0.00 0.00 0.00 83 1012.5
20260831083933 14 233 8.0 20.9 0.00 0.00 0.00 83 1012.5
20260831083435 14 200 9.7 19.3 0.00 0.00 0.00 83 1012.6
20260831082939 14 214 6.4 17.7 0.00 0.00 0.00 83 1012.6
20260831082454 14 210 9.7 22.5 0.00 0.00 0.00 83 1012.6
20260831081919 14 222 3.2 17.7 0.00 0.00 0.00 83 1012.7
20260831081423 14 218 4.8 17.7 0.00 0.00 0.00 83 1012.7
20260831080927 14 217 9.7 17.7 0.00 0.00 0.00 83 1012.7
20260831080426 14 251 3.2 9.7 0.00 0.00 0.00 84 1012.6
20260831075932 14 257 4.8 17.7 0.00 0.00 0.00 84 1012.8
20260831075436 14 251 8.0 17.7 0.00 0.00 0.00 84 1012.9
20260831074919 14 233 3.2 9.7 0.00 0.00 0.00 83 1012.9
20260831074423 14 230 4.8 9.7 0.00 0.00 0.00 83 1012.8
20260831073929 14 222 4.8 14.5 0.00 0.00 0.00 83 1012.7
20260831073435 14 256 9.7 17.7 0.00 0.00 0.00 83 1012.7
20260831072934 14 177 4.8 17.7 0.00 0.00 0.00 83 1012.7
20260831072437 14 235 4.8 12.9 0.00 0.00 0.00 83 1012.6
20260831071921 14 218 4.8 11.3 0.00 0.00 0.00 84 1012.6
20260831071435 14 313 4.8 14.5 0.00 0.00 0.00 84 1012.7
20260831070942 14 215 8.0 14.5 0.00 0.00 0.00 84 1012.7
20260831070454 14 151 4.8 17.7 0.00 0.00 0.00 84 1012.8
20260831065922 14 225 11.3 17.7 0.00 0.00 0.00 84 1012.7
20260831065427 14 58 1.6 16.1 0.00 0.00 0.00 84 1012.8
20260831064932 14 222 3.2 16.1 0.00 0.00 0.00 84 1012.8
20260831064436 14 320 3.2 8.0 0.00 0.00 0.00 84 1012.8
20260831063920 14 228 3.2 12.9 0.00 0.00 0.00 84 1012.7
20260831063444 14 273 4.8 12.9 0.00 0.00 0.00 84 1012.7
20260831062929 14 256 3.2 9.7 0.00 0.00 0.00 84 1012.7
20260831062432 14 101 3.2 8.0 0.00 0.00 0.00 84 1012.8
20260831061936 14 130 3.2 8.0 0.00 0.00 0.00 84 1012.7
20260831061423 14 107 3.2 9.7 0.00 0.00 0.00 84 1012.8
20260831060958 14 105 4.8 11.3 0.00 0.00 0.00 84 1012.8
20260831060419 14 219 3.2 12.9 0.00 0.00 0.00 84 1012.8
20260831055924 14 83 4.8 8.0 0.00 0.00 0.00 84 1012.8
20260831055430 14 83 4.8 8.0 0.00 0.00 0.00 84 1012.7
20260831054930 14 67 3.2 8.0 0.00 0.00 0.00 84 1012.6
20260831054417 14 88 3.2 14.5 0.00 0.00 0.00 84 1012.6
20260831053921 14 205 4.8 14.5 0.00 0.00 0.00 84 1012.6
20260831053426 14 351 4.8 14.5 0.00 0.00 0.00 84 1012.6
20260831052932 14 107 1.6 8.0 0.00 0.00 0.00 84 1012.7
20260831052418 14 163 1.6 11.3 0.00 0.00 0.00 84 1012.6
20260831051923 14 134 4.8 11.3 0.00 0.00 0.00 84 1012.6
20260831051422 14 177 3.2 8.0 0.00 0.00 0.00 84 1012.7
20260831050929 14 88 4.8 8.0 0.00 0.00 0.00 84 1012.7
20260831050430 14 346 4.8 8.0 0.00 0.00 0.00 84 1012.7
20260831045934 14 75 6.4 12.9 0.00 0.00 0.00 84 1012.7
20260831045418 14 123 1.6 14.5 0.00 0.00 0.00 84 1012.6
20260831044920 14 162 6.4 14.5 0.00 0.00 0.00 84 1012.8
20260831044426 14 160 3.2 14.5 0.00 0.00 0.00 84 1012.7
20260831043930 14 163 6.4 19.3 0.00 0.00 0.00 84 1012.7
20260831043435 14 157 8.0 19.3 0.00 0.00 0.00 84 1012.7
20260831042938 14 5 3.2 12.9 0.00 0.00 0.00 84 1012.7
20260831042420 14 50 6.4 12.9 0.00 0.00 0.00 84 1012.7
20260831041926 14 82 6.4 12.9 0.00 0.00 0.00 85 1012.6
20260831041433 14 62 4.8 9.7 0.00 0.00 0.00 85 1012.7
20260831040938 14 69 4.8 12.9 0.00 0.00 0.00 85 1012.6
20260831040448 14 88 9.7 12.9 0.00 0.00 0.00 85 1012.5
20260831035959 14 52 8.0 11.3 0.00 0.00 0.00 85 1012.5
20260831035422 14 74 8.0 12.9 0.00 0.00 0.00 85 1012.3
20260831034927 14 106 6.4 12.9 0.00 0.00 0.00 85 1012.3
20260831034433 14 64 6.4 11.3 0.00 0.00 0.00 85 1012.3
20260831033919 14 27 4.8 11.3 0.00 0.00 0.00 85 1012.3
20260831033423 14 292 3.2 8.0 0.00 0.00 0.00 85 1012.4
20260831032922 14 62 1.6 12.9 0.00 0.00 0.00 85 1012.3
20260831032425 14 62 8.0 16.1 0.00 0.00 0.00 85 1012.2
20260831031938 14 83 9.7 16.1 0.00 0.00 0.00 85 1012.1
20260831031423 13 67 6.4 14.5 0.00 0.00 0.00 85 1012.1
20260831030929 13 78 8.0 12.9 0.00 0.00 0.00 85 1012.0
20260831030434 13 151 6.4 17.7 0.00 0.00 0.00 85 1011.9
20260831025933 13 322 4.8 24.1 0.00 0.00 0.00 85 1011.8
20260831025418 13 294 9.7 24.1 0.00 0.00 0.00 85 1011.8
20260831024924 13 249 8.0 20.9 0.00 0.00 0.00 85 1011.7
20260831024427 13 12 6.4 20.9 0.00 0.00 0.00 85 1011.7
20260831023933 13 320 9.7 19.3 0.00 0.00 0.00 85 1011.6
20260831023435 13 261 4.8 22.5 0.00 0.00 0.00 85 1011.6
20260831022919 13 214 8.0 17.7 0.00 0.00 0.00 84 1011.5
20260831022438 13 194 6.4 17.7 0.00 0.00 0.00 84 1011.4
20260831021925 13 192 4.8 24.1 0.00 0.00 0.00 84 1011.5
20260831021431 13 222 11.3 30.6 0.00 0.00 0.00 83 1011.6
20260831020936 13 301 12.9 30.6 0.00 0.00 0.00 83 1011.5
20260831020421 14 227 9.7 22.5 0.00 0.00 0.00 83 1011.6
20260831015946 14 254 9.7 24.1 0.00 0.00 0.00 82 1011.6
20260831015430 14 290 11.3 25.7 0.00 0.00 0.00 82 1011.6